Погода в Новикове

Россия / Сахалинская область     46°21′53″N   143°21′57″E
темп.,
°C
ветер,
м/с
пор.,
м/с
влажн.,
%
обл.,
%
осадки,
мм/ч
давл.,
гПа
погр.,
м
18 сентября, сб
сб1823:00+16ю688094 0.0 1016116
02:00+16ююв67859 0.0 1015113
05:00+15ююв568816 0.0 101599
08:00+15ююв688977 0.0 1015187
11:00+15ююв8119142 0.0 1014329
14:00+15ююв7109281 0.0 1013343
17:00+16ю812904 0.0 1012268
20:00+15ю1015915 0.0 1013376
19 сентября, вс
вс1923:00+15ю8139346 0.0 1013387
02:00+14ю799283 0.0 1013428
05:00+15ююз458996 0.0 1012429
08:00+15зсз228796 0.1 101248
11:00+14ссв6686100 0.2 1013382
14:00+14зсз22775 0.0 1013217
17:00+15з347610 0.1 1013262
20:00+15ссз796964 0.0 1015470
20 сентября, пн
пн2023:00+14сз586170 0.0 1016595
02:00+14з24600 0.0 1016279
05:00+14зсз6870100 0.0 1016460
08:00+14сз69680 0.0 1017563
11:00+15з68700 0.0 1018543
14:00+15зюз69684 0.0 1017255
17:00+16з8116440 0.0 1017377
20:00+15зсз6867100 0.0 1018210
21 сентября, вт
вт2123:00+15зюз4569100 0.0 1018106
02:00+15зюз567486 0.0 1018138
05:00+15юз6775100 0.0 1017205
08:00+15ююз5675100 0.0 1017164
11:00+15ююз5574100 0.0 1017130
14:00+15юз4576100 0.0 1016119
17:00+15ююз3377100 0.0 101661
20:00+15ю3373100 0.0 101631
22 сентября, ср
ср2223:00+15вюв2272100 0.3 101525
02:00+15вюв4472100 0.1 101480
05:00+13всв6685100 1.9 1013190
08:00+13всв81289100 2.4 1013553
11:00+13в111392100 8.5 1011616
14:00+13всв121594100 9.3 1009663
17:00+13всв131692100 13.6 1010813
20:00+12св141787100 1.9 1012907